RH
28 30 29 23 15 12 11 10 13 21 29 33 33 30 28 28 28 28 27 26 24 23 24 24 23 21 20 18 18 18 18 17 16 16 16 17 15 14 13 12 10 8 7 5 5 4 3 4 7 14 23 30 33 32 31 28 27 24 22 20 17 15 11 12 10 11 22 18 13 18 14 13 13 9 13 17 12 6 10 23 18 7 15 30 33 29 31 34
22 25 29 30 24 16 12 11 10 11 16 24 31 33 32 29 28 29 28 28 27 24 23 24 24 23 22 21 19 18 18 18 17 17 20 19 17 17 16 14 13 11 10 8 6 5 4 4 4 7 14 23 30 31 31 31 28 26 24 21 18 14 10 12 10 16 30 27 19 17 15 14 14 12 13 15 10 3 10 24 21 16 24 28 31 32 35 36
19 20 22 27 29 25 18 13 12 11 11 13 19 26 32 33 30 28 29 30 29 27 25 23 24 24 24 23 21 19 18 18 17 19 22 19 18 20 18 17 15 14 12 10 8 6 5 4 3 5 7 15 22 26 30 31 28 28 25 23 19 13 12 12 13 22 29 32 28 22 16 12 14 15 18 24 22 16 10 15 22 28 40 42 40 42 42 41
17 17 18 20 24 27 26 20 14 12 12 11 11 15 22 30 33 31 29 30 31 30 28 26 25 24 25 23 22 22 20 17 16 20 22 19 19 20 19 19 18 17 15 13 11 8 7 5 4 4 4 8 13 18 25 27 28 29 26 25 20 13 15 13 16 25 24 26 25 22 18 13 17 15 25 42 43 35 15 15 29 29 41 51 52 52 48 45
17 16 16 17 17 21 25 26 22 16 13 12 12 11 13 19 27 33 32 30 31 32 31 29 27 25 25 25 24 23 22 20 16 19 21 18 19 19 20 21 20 20 18 16 14 11 9 6 5 4 3 5 6 11 18 22 27 30 28 27 21 15 15 12 17 24 20 19 19 21 18 15 14 17 43 55 39 31 14 24 48 40 42 52 50 49 47 44
17 17 16 16 16 16 18 22 25 23 18 14 13 13 12 12 16 25 33 34 31 32 34 32 30 28 26 25 25 23 23 21 17 20 22 18 18 19 20 21 22 23 21 19 17 14 11 9 7 5 4 4 4 7 13 17 22 26 29 29 25 19 16 13 15 18 14 14 18 18 15 13 11 21 53 46 18 18 9 24 58 56 50 46 41 43 41 37
16 16 16 16 16 15 15 15 19 24 24 19 14 13 13 12 12 15 24 33 34 33 32 33 33 31 30 27 26 24 23 21 18 23 26 22 19 19 20 20 22 23 22 22 20 17 14 11 9 6 5 4 4 5 9 13 16 21 29 30 27 24 19 16 15 15 13 13 15 14 13 15 12 19 33 19 6 12 4 11 43 57 55 46 40 40 37 30
18 16 16 16 16 16 16 14 14 16 21 24 20 15 13 13 13 12 15 22 31 35 33 32 33 34 33 30 28 25 23 23 22 25 30 28 24 21 20 20 21 23 24 24 23 20 17 14 11 8 6 5 4 6 7 8 11 17 28 31 29 27 22 19 17 16 15 13 12 13 14 14 15 20 20 9 8 12 6 9 27 42 50 53 49 44 40 32
20 19 18 16 16 16 16 16 14 13 14 19 23 20 15 13 13 13 13 15 21 31 35 34 31 33 34 32 30 24 26 31 27 27 31 32 29 24 21 21 21 23 24 25 24 22 19 16 13 11 8 6 5 5 5 6 8 14 26 31 28 28 26 22 20 17 17 15 12 12 12 11 12 21 20 8 9 12 8 11 22 30 36 49 53 47 45 39
23 22 22 20 18 16 16 16 16 15 12 12 17 22 20 16 14 13 14 14 15 20 30 35 33 32 32 33 29 24 35 40 28 26 29 29 30 27 24 22 22 22 24 25 25 24 22 18 14 12 10 8 7 5 5 5 7 11 23 30 29 28 26 25 23 20 19 16 14 11 9 10 9 20 24 8 6 10 6 14 30 29 24 38 55 55 48 42
26 25 24 24 23 20 18 17 16 17 15 11 10 16 22 20 16 14 13 14 14 15 19 27 34 34 31 31 26 30 47 43 27 23 24 24 27 30 28 25 23 22 24 25 25 26 24 21 17 14 12 10 8 7 5 5 5 8 15 23 25 24 22 23 24 23 21 18 16 11 8 11 7 17 26 9 5 10 4 18 42 36 20 31 55 62 54 48
30 28 27 26 26 25 22 18 17 17 17 16 11 8 14 21 20 16 14 14 13 15 15 18 25 32 33 27 25 40 52 42 29 23 21 23 25 29 29 27 28 25 25 26 26 28 27 24 20 17 14 12 10 8 7 7 6 6 9 12 14 18 19 21 24 24 24 21 17 12 10 11 6 15 26 10 5 11 4 16 41 40 33 46 58 61 60 53
32 32 31 30 29 28 26 22 20 18 17 17 15 10 7 13 21 20 16 14 13 14 15 15 16 23 29 27 31 47 49 39 33 25 22 29 31 32 30 28 30 28 26 26 27 29 28 26 23 20 17 13 12 10 10 9 8 7 7 7 9 14 18 20 25 26 26 23 19 14 11 10 7 15 24 12 3 8 9 15 27 31 44 70 74 63 56 43
31 32 32 33 32 31 30 27 23 20 20 18 17 15 9 6 13 20 20 15 15 13 14 15 13 14 19 27 40 49 44 36 33 25 22 31 37 37 34 31 32 31 29 28 29 29 29 28 26 23 20 16 14 12 11 10 9 9 7 7 7 10 16 21 24 25 26 23 20 16 12 12 9 15 25 21 14 8 7 10 11 23 42 57 59 51 39 29
32 31 31 32 33 33 32 31 29 24 22 20 18 17 14 8 5 13 21 19 16 14 14 13 13 13 10 21 41 48 42 34 29 27 26 34 41 40 39 37 36 35 33 32 32 31 30 29 27 25 22 19 17 14 13 11 9 9 7 7 7 7 13 21 24 25 26 24 22 18 13 11 12 29 36 32 38 25 7 7 5 21 44 45 41 32 23 25
38 34 31 31 31 33 33 32 31 29 25 22 21 18 16 13 6 5 13 21 19 16 15 12 12 13 9 18 36 40 37 33 29 30 32 39 42 39 40 39 38 38 36 35 35 33 33 30 28 27 25 22 19 17 15 13 12 10 9 8 7 8 12 19 22 23 26 25 23 19 15 11 13 33 42 44 61 42 7 6 7 19 45 50 44 33 25 34
41 39 35 34 32 32 33 34 33 32 29 25 22 20 18 15 11 5 5 14 21 19 15 14 12 12 12 20 28 30 34 38 40 39 41 46 44 38 40 38 37 38 38 38 36 35 34 31 29 27 26 24 21 20 17 16 15 11 11 9 8 9 12 19 19 19 25 24 23 21 14 12 14 28 46 56 61 37 8 11 16 25 41 43 41 41 41 46
44 43 40 39 37 35 33 33 34 34 31 28 24 22 20 17 14 10 4 5 15 21 18 14 13 12 13 19 25 29 30 34 40 43 46 48 44 40 40 40 39 40 40 39 37 36 34 32 31 29 28 26 24 22 20 19 16 13 12 10 10 9 11 20 19 17 21 23 26 22 15 21 27 36 53 57 46 34 28 30 32 32 32 27 28 37 44 44
45 45 43 42 40 39 37 35 35 34 33 31 27 22 21 19 16 13 8 3 6 16 20 17 14 14 15 16 22 26 23 24 30 34 39 44 44 42 41 42 43 41 41 40 37 37 35 34 32 29 27 26 26 24 22 21 17 15 13 11 12 11 12 21 23 21 21 24 26 22 27 33 30 40 55 55 49 49 50 46 38 27 18 17 21 29 36 35
43 44 43 43 42 41 39 37 36 35 34 32 29 25 22 20 18 14 11 6 2 7 17 19 17 15 15 15 17 19 20 22 23 24 29 35 39 42 44 45 45 43 42 40 40 39 38 35 29 25 26 27 27 27 25 22 18 16 15 13 12 11 15 22 25 26 26 29 27 28 43 39 35 63 76 59 55 59 52 41 33 24 17 16 16 22 31 35
33 36 39 40 41 42 41 40 37 36 35 34 31 27 23 20 18 16 12 9 4 2 8 16 19 18 16 15 15 16 17 18 19 21 24 26 30 34 39 43 43 42 41 42 44 43 37 30 23 24 29 31 29 28 25 21 18 17 16 15 13 11 17 23 28 34 35 35 32 36 49 44 49 88 96 69 64 62 39 26 29 24 18 14 13 17 25 32
20 25 30 34 36 37 39 39 38 37 36 35 32 28 24 21 18 16 14 10 7 2 3 8 15 21 21 17 15 16 15 15 17 19 21 22 21 22 28 35 36 38 43 45 44 38 27 19 20 26 31 35 32 29 26 22 19 18 17 16 14 14 20 28 37 45 44 39 38 41 48 49 53 80 91 74 68 58 24 13 23 22 23 26 20 20 24 32
10 14 18 23 28 31 34 35 36 36 36 34 32 29 24 21 19 17 14 11 9 4 1 3 8 19 26 21 17 17 15 15 15 15 19 20 18 20 25 26 29 34 39 38 33 27 17 12 21 28 33 36 33 30 28 25 21 20 19 17 16 18 25 34 44 49 45 41 44 46 48 53 54 63 67 54 57 56 24 10 20 22 29 35 30 34 38 37
8 9 12 15 17 22 27 30 32 33 34 33 31 28 25 22 19 16 14 11 10 7 3 2 1 11 25 25 21 19 17 16 15 15 16 17 20 23 24 25 28 31 30 29 27 23 19 18 24 31 34 35 34 33 31 27 25 21 19 19 17 18 28 42 49 49 45 42 48 50 50 54 55 58 51 35 49 64 37 16 21 25 27 34 42 55 62 54
8 9 17 18 13 16 19 22 27 29 30 31 29 28 24 21 19 16 14 11 10 8 5 4 1 5 17 20 19 20 20 17 16 16 16 17 20 23 25 28 27 25 25 28 28 23 23 26 30 32 34 34 33 33 32 30 27 23 22 20 16 20 36 50 54 53 49 46 50 52 51 54 57 60 47 25 34 54 46 27 21 24 28 38 50 56 70 83
12 18 38 36 17 12 14 15 21 23 25 27 27 26 23 21 19 16 15 12 10 9 6 6 4 4 9 8 10 17 19 18 18 20 20 18 20 24 27 27 25 25 27 32 32 24 23 27 31 33 32 34 34 31 31 31 27 26 24 19 19 29 43 50 55 61 58 53 53 52 52 55 57 55 39 25 32 45 51 44 36 38 36 37 45 46 60 85
21 24 55 59 33 20 16 13 16 18 21 24 24 25 22 20 18 16 16 13 10 11 10 9 8 11 12 5 5 9 10 17 23 23 21 18 21 25 26 24 25 30 32 37 33 21 21 27 29 32 34 35 33 28 30 31 29 28 24 21 29 36 40 46 54 60 61 59 58 54 52 53 57 53 37 30 41 51 56 55 55 57 50 43 47 51 56 66
30 40 71 78 55 35 22 13 14 16 18 21 22 22 20 19 18 17 17 14 17 17 11 11 13 18 21 11 6 6 5 11 17 19 22 22 25 27 24 22 24 32 37 36 25 18 27 32 27 30 35 32 28 28 32 31 30 29 23 23 34 38 37 47 58 60 61 61 56 53 53 51 53 53 45 38 43 52 58 59 61 62 54 48 49 53 58 61
55 76 89 81 67 54 33 16 15 16 16 18 19 20 20 19 17 19 18 18 28 27 15 14 14 19 24 15 9 10 8 8 10 17 25 24 27 29 25 22 26 37 42 34 27 30 35 35 32 34 33 29 28 32 35 33 30 29 24 21 26 34 40 51 60 60 61 60 53 52 55 53 52 53 49 41 36 38 44 49 57 64 58 49 46 48 54 59
87 98 94 83 85 74 39 17 17 17 16 17 18 19 19 18 18 20 20 23 32 30 20 19 17 20 25 17 13 16 12 11 13 19 22 18 23 31 32 31 33 41 43 35 34 38 38 40 44 37 30 31 36 37 36 35 33 30 27 21 23 35 46 52 55 55 62 65 56 53 56 57 57 57 51 41 35 37 40 45 54 63 61 52 49 52 55 61
100 97 95 97 96 69 32 20 21 22 22 18 17 19 18 19 20 19 22 29 31 25 26 32 27 24 26 20 19 20 17 16 16 17 15 11 20 31 35 37 36 38 40 33 31 37 42 47 46 35 31 36 40 40 38 36 34 31 28 23 25 39 50 51 50 52 59 58 51 53 56 58 61 59 53 45 37 39 43 51 61 63 57 54 61 71 71 67
98 94 99 102 82 50 31 25 25 35 37 22 15 20 19 18 20 21 28 35 35 34 39 44 39 31 26 22 21 20 20 20 18 18 14 10 17 26 32 35 31 30 32 26 27 38 46 48 46 42 41 41 39 40 40 38 35 32 31 27 24 33 44 46 48 54 54 46 50 62 60 56 63 62 55 48 39 42 48 54 63 63 56 58 67 74 72 62
95 98 101 93 71 49 35 29 45 64 54 28 18 20 17 20 29 30 32 37 45 60 64 52 43 37 25 20 18 17 19 21 20 20 17 13 17 25 34 39 36 32 29 26 32 44 52 53 52 50 46 42 39 40 39 37 36 33 31 30 28 28 31 35 43 55 58 51 57 71 66 57 65 69 61 48 41 47 54 54 60 64 61 62 63 60 58 52
95 100 97 89 76 55 36 44 76 92 70 37 19 20 21 29 42 42 45 55 59 72 79 63 44 34 24 19 18 16 15 16 19 21 20 18 18 24 33 40 41 38 34 36 41 46 53 53 46 45 46 43 41 44 46 43 41 41 34 30 30 28 26 31 42 54 60 62 65 70 70 63 64 68 62 52 48 52 56 57 67 75 71 66 63 59 56 52
100 99 99 99 82 59 56 75 95 99 81 46 22 25 34 45 58 63 76 90 78 65 75 75 51 32 28 25 21 21 16 13 16 20 22 19 15 20 31 38 41 40 39 43 44 45 52 50 41 48 56 54 52 58 68 65 52 47 44 37 31 28 32 37 44 53 60 66 70 69 67 67 66 63 58 57 58 60 63 65 73 84 86 81 77 72 66 58
98 96 102 98 76 71 88 99 99 94 73 44 31 37 47 58 65 72 89 99 85 62 59 71 62 42 38 37 32 29 23 21 22 22 23 24 23 26 35 42 42 41 41 42 44 47 52 54 57 72 77 68 65 71 79 77 67 60 53 41 29 32 48 49 39 48 63 68 69 69 67 64 63 61 57 58 60 60 66 71 73 79 85 88 86 80 76 70
82 90 93 80 74 93 103 98 100 90 58 42 47 50 60 67 60 71 92 91 86 74 55 59 69 58 50 47 44 40 33 32 31 28 27 29 33 35 39 45 44 42 42 42 51 55 53 62 76 88 89 81 80 85 82 77 83 84 63 39 33 45 65 63 42 43 62 67 65 68 70 68 69 64 56 58 61 60 66 74 75 75 76 81 81 76 75 77
62 60 65 72 89 103 99 97 100 83 57 57 63 60 70 77 66 79 98 89 90 95 77 66 74 79 72 56 48 45 39 38 34 33 36 34 35 39 41 45 45 44 42 42 60 73 71 79 89 91 96 92 83 83 81 72 70 77 70 53 46 52 59 56 46 44 51 60 65 65 65 71 74 64 55 62 71 70 70 72 72 72 73 77 78 73 72 73
75 57 62 85 101 101 98 96 83 67 66 75 79 77 83 88 83 90 100 94 96 103 93 74 65 82 94 77 65 56 39 37 39 38 42 39 40 45 43 45 45 43 43 43 62 87 89 92 99 97 95 94 85 77 76 67 53 60 79 74 52 48 52 46 43 48 49 52 59 59 57 61 62 55 51 58 65 66 70 70 69 70 72 76 78 77 75 74
96 85 83 92 100 101 95 74 55 65 84 90 93 94 95 97 93 94 101 102 100 98 97 85 64 70 88 87 90 83 52 41 46 48 53 54 57 59 47 43 45 40 41 51 70 91 96 93 100 99 94 98 94 73 58 57 55 62 84 83 56 50 62 60 55 64 63 55 54 52 49 49 49 49 48 49 52 57 63 65 65 65 67 73 78 79 76 76
99 94 83 82 92 93 74 56 64 88 100 99 101 101 100 101 98 98 101 101 101 98 99 98 80 71 83 90 100 98 69 55 58 58 68 76 78 74 57 43 43 39 41 57 74 91 97 91 89 90 91 96 91 72 62 61 60 63 76 82 67 56 67 73 68 71 70 64 63 57 51 49 48 46 45 45 51 56 58 59 60 60 61 66 72 74 74 75
100 93 77 70 75 72 65 74 94 104 101 100 102 100 100 101 99 101 101 99 102 101 98 100 89 80 89 97 100 93 73 73 82 78 80 90 88 86 78 57 41 37 40 49 57 69 80 83 84 84 84 88 87 84 85 77 65 65 71 78 77 70 69 70 70 74 74 72 76 73 67 63 59 53 49 50 56 60 62 63 64 63 63 65 67 69 72 75
99 97 86 74 69 71 81 96 102 101 100 101 100 100 101 100 100 101 100 100 102 101 100 99 94 90 91 91 94 92 79 80 92 91 89 94 92 93 96 79 48 35 43 55 63 67 71 80 91 88 80 87 96 95 93 85 77 78 76 73 77 76 71 66 68 77 81 80 81 81 77 71 66 61 52 48 54 61 66 72 73 71 69 69 70 73 78 80
97 94 85 81 83 89 96 100 101 101 101 101 100 101 101 99 100 100 99 101 101 101 102 98 97 100 94 89 92 94 90 84 84 90 94 96 96 97 100 90 61 39 43 62 75 73 74 85 95 89 81 93 106 101 93 86 83 87 87 79 74 72 73 73 72 74 81 85 84 82 79 72 71 72 63 54 58 63 67 73 73 69 71 74 76 77 81 82
101 90 78 86 97 100 101 100 101 101 99 100 101 100 101 100 100 100 100 101 99 97 100 100 101 103 96 91 88 83 86 84 77 86 99 99 98 101 99 91 77 60 56 65 70 68 78 95 100 88 78 80 84 80 76 73 73 81 85 82 80 77 76 80 77 72 75 84 91 93 85 73 72 77 75 73 77 79 79 79 74 69 71 77 79 79 81 82
100 89 81 91 99 100 101 100 100 100 99 101 100 99 101 100 99 101 99 100 98 95 98 99 101 104 96 87 82 78 80 80 75 85 100 101 101 102 96 90 90 86 78 75 75 77 88 101 102 93 79 69 65 67 71 72 72 71 69 77 90 87 79 83 85 78 76 82 93 95 88 81 76 73 74 78 84 87 87 87 87 86 85 84 82 81 82 84
89 90 90 95 100 101 101 100 100 100 99 101 100 100 101 98 99 102 97 96 99 98 100 101 101 104 95 80 77 79 79 76 72 77 90 97 101 100 94 94 99 99 94 90 89 91 92 93 98 98 87 73 70 74 76 75 77 75 71 82 98 94 85 88 90 87 84 87 90 84 76 76 76 73 77 83 87 90 91 89 89 89 88 87 84 79 79 83
78 88 92 94 99 101 101 100 99 98 97 97 96 96 98 96 96 96 90 90 98 100 101 102 101 101 94 83 80 83 83 79 73 76 88 99 102 98 96 100 101 97 98 98 93 89 85 85 95 99 86 76 78 84 83 77 79 84 85 91 101 99 94 94 94 94 91 89 90 85 75 69 67 70 80 86 88 92 94 91 85 80 78 78 78 75 73 77
75 81 89 94 96 96 94 90 88 89 87 84 84 85 87 89 90 87 83 86 95 101 102 102 102 100 96 91 91 92 90 87 86 87 93 100 101 99 100 104 98 92 96 101 94 86 82 86 98 100 88 80 85 90 87 81 78 81 89 98 99 97 98 94 91 93 91 87 90 91 86 78 68 69 78 86 90 94 96 93 86 79 74 71 73 73 71 73
86 78 81 84 82 80 77 70 70 76 72 66 67 67 64 69 74 73 75 81 89 97 101 102 100 100 99 94 92 92 88 89 96 96 94 98 100 100 102 95 83 84 97 105 100 89 84 86 93 98 96 91 90 85 78 78 77 74 84 94 88 84 89 83 73 77 82 86 89 89 90 88 77 71 78 87 92 95 98 97 89 79 73 72 74 74 73 78
82 74 74 75 72 69 64 55 53 58 55 51 53 52 47 48 54 58 64 72 83 94 101 101 98 99 101 93 85 83 80 84 93 92 92 99 99 98 98 82 72 86 99 101 99 93 92 95 96 101 102 95 91 87 79 80 81 75 84 95 86 79 84 79 71 70 74 84 92 92 92 92 84 77 79 89 96 97 100 99 92 83 75 70 71 71 73 80
69 66 63 63 61 56 50 46 44 43 41 37 35 36 35 36 40 50 58 63 75 90 99 100 98 98 100 94 85 81 80 84 91 90 93 99 98 97 93 78 79 97 101 98 99 96 96 100 97 97 97 89 87 89 87 89 91 87 89 91 83 80 84 86 83 78 78 87 94 92 89 87 83 78 79 90 100 99 98 97 91 83 75 67 64 64 67 71
Wind_Speed
40 41 42 43 43 44 44 45 45 46 46 47 48 49 49 50 51 52 53 53 53 52 51 50 48 47 45 43 41 39 38 37 36 34 31 31 33 30 28 27 27 26 23 21 21 21 23 26 30 33 35 34 32 30 29 28 27 28 27 25 21 18 19 18 19 19 16 20 29 29 30 33 30 18 11 20 27 27 26 28 29 26 19 14 15 18 17 15
39 39 40 42 43 44 44 44 44 44 45 46 47 48 48 49 49 51 52 53 53 53 52 51 50 49 47 45 43 42 40 38 37 34 31 33 34 31 29 29 28 27 24 23 22 20 20 22 25 28 32 33 33 32 30 29 28 28 27 24 20 17 19 20 20 20 19 23 31 31 33 33 27 19 15 21 28 28 28 28 25 21 18 16 17 19 17 16
38 39 39 40 42 43 44 44 44 44 44 45 46 47 48 48 49 49 51 52 53 53 53 52 51 50 49 47 45 44 42 40 39 34 33 36 35 32 30 30 29 28 26 25 23 21 20 20 21 24 27 30 32 33 31 30 29 28 26 23 18 17 18 21 22 22 24 27 31 33 34 32 25 20 17 22 27 27 26 27 24 20 17 15 18 20 18 17
37 38 38 39 40 42 43 44 45 44 44 44 44 45 47 48 48 49 49 50 52 52 53 53 52 52 50 49 47 45 44 43 40 36 37 38 35 33 32 31 30 28 27 26 24 22 21 19 19 21 24 27 29 31 32 31 29 27 26 22 18 18 21 25 26 27 30 32 33 35 35 31 24 21 22 23 25 24 24 27 24 22 20 19 20 19 19 19
38 38 38 38 39 40 42 43 44 45 45 44 44 44 45 46 48 48 49 49 50 51 52 53 53 52 52 51 49 47 46 44 43 40 39 39 37 34 33 31 30 28 27 27 25 23 22 20 19 20 21 24 26 28 30 30 28 27 25 21 20 22 26 29 29 31 33 33 35 37 34 29 24 24 26 24 24 25 26 26 22 20 22 23 23 22 21 20
39 39 39 39 39 40 41 42 43 45 45 45 44 44 44 45 46 47 48 49 50 50 51 52 52 53 53 52 51 49 47 46 45 42 40 40 39 36 34 32 30 28 28 27 25 24 24 22 21 20 20 22 23 24 27 28 27 28 25 22 23 23 26 28 29 33 33 32 34 35 31 26 24 26 28 26 25 27 28 26 21 19 23 25 23 23 23 22
38 39 40 40 40 40 40 41 43 44 45 45 45 45 44 43 44 46 47 49 49 50 51 51 52 52 53 53 53 51 50 49 47 43 40 41 40 38 36 34 31 30 29 27 26 25 25 25 23 21 20 21 22 23 25 26 27 27 25 23 25 25 26 26 28 32 31 29 29 29 29 26 25 24 25 26 27 28 29 29 25 23 25 25 24 24 24 23
38 39 40 40 41 41 41 41 41 43 44 45 46 46 45 44 43 44 45 47 49 49 50 51 51 51 53 54 54 53 51 49 48 44 41 41 41 40 38 36 34 32 30 28 27 27 27 27 25 22 21 21 21 22 24 25 26 26 24 24 27 28 27 25 27 30 30 27 23 24 29 26 24 23 22 24 27 28 30 31 29 26 25 24 24 25 24 23
38 38 39 40 41 42 42 42 42 42 43 45 45 46 46 45 44 43 44 45 47 49 49 50 51 51 51 53 54 54 49 47 49 47 44 43 42 42 41 38 36 33 31 30 29 29 29 27 26 24 22 22 22 23 24 24 25 25 24 25 28 29 27 26 29 31 31 26 20 22 27 23 20 22 25 28 29 30 31 33 32 29 25 24 23 23 24 24
42 40 39 39 39 41 42 43 43 42 42 44 45 46 46 46 46 45 43 43 44 47 49 50 50 50 50 51 52 52 46 47 52 51 48 46 44 43 42 40 37 35 33 32 31 30 29 27 27 25 25 25 24 25 24 24 25 24 25 27 29 30 29 30 31 31 31 25 18 20 22 19 17 23 28 30 31 32 33 33 33 29 25 25 23 21 22 22
47 45 43 41 40 39 40 42 44 44 43 43 44 45 46 46 47 46 45 44 43 44 46 49 49 50 49 49 49 48 46 49 54 53 51 49 46 43 43 42 39 37 35 34 33 31 30 29 29 29 28 27 26 26 26 26 26 24 26 29 31 31 30 30 29 28 30 23 17 18 18 17 19 25 29 29 32 35 35 34 31 29 26 25 24 21 21 21
50 48 47 46 43 41 40 41 42 44 44 43 43 44 46 47 47 48 47 45 44 43 43 46 48 49 49 48 46 44 46 50 53 54 52 49 45 43 44 43 41 39 37 36 34 33 31 31 31 31 30 29 28 27 26 25 25 23 25 28 29 29 29 29 27 28 28 20 16 18 17 17 19 24 28 29 33 35 35 33 28 27 26 25 25 21 19 19
52 51 50 49 47 45 42 41 41 42 44 45 44 44 45 47 48 48 48 47 45 44 42 43 45 47 48 47 43 43 46 49 51 53 52 47 42 42 44 44 43 41 39 37 36 34 33 33 33 32 31 31 31 29 28 27 26 25 25 24 24 25 27 27 26 27 24 17 16 18 17 18 18 22 28 30 33 35 35 32 28 27 26 25 26 24 22 21
54 54 53 51 50 48 46 43 41 41 43 44 45 44 44 46 48 48 48 48 47 46 44 43 42 44 47 45 43 44 47 48 49 52 52 45 40 42 44 45 44 42 40 38 37 36 35 35 34 33 33 32 32 31 32 32 29 26 25 24 22 23 25 25 25 26 23 17 17 19 17 17 16 21 27 30 33 37 35 33 31 29 28 28 29 29 27 25
56 55 54 53 52 51 49 47 43 41 41 43 45 45 45 44 47 49 49 49 49 47 46 44 42 41 43 43 43 45 47 48 48 49 49 43 40 43 44 43 43 41 40 38 38 38 37 37 36 35 34 33 33 33 33 32 29 26 27 25 22 22 22 23 24 24 21 18 19 19 16 15 16 19 24 28 33 36 33 31 31 28 26 27 29 31 29 27
59 57 55 54 53 52 51 50 47 44 42 42 44 46 46 44 45 48 50 49 49 49 48 46 43 40 39 39 42 45 47 47 47 47 46 42 41 44 44 43 43 43 41 40 39 39 39 39 38 36 35 35 35 33 32 32 29 27 28 26 23 21 20 22 24 23 19 19 21 20 15 15 15 16 23 29 33 34 30 29 31 27 24 24 27 30 28 27
61 60 58 55 54 53 52 52 50 47 44 42 43 45 46 46 45 46 49 50 50 50 49 48 45 42 38 36 38 41 44 44 44 44 42 41 41 44 45 45 45 44 42 41 41 41 41 41 40 39 37 37 36 33 33 34 30 27 27 24 22 20 20 21 23 23 19 19 21 18 13 14 12 16 27 33 33 31 26 25 27 27 27 28 29 29 27 26
64 63 61 59 56 54 53 53 52 49 46 44 43 44 45 46 46 45 47 50 51 50 50 50 47 44 41 37 36 37 41 43 43 43 42 41 42 44 46 45 45 45 43 43 42 42 42 41 41 40 39 39 37 35 36 34 28 25 24 22 20 20 20 20 22 23 19 19 19 14 10 14 13 18 29 33 32 29 25 24 26 28 31 32 30 29 27 27
67 66 65 62 60 57 55 54 53 52 49 46 44 44 44 45 46 45 46 48 51 51 51 51 49 46 44 40 38 38 41 43 44 45 44 44 45 45 46 46 46 46 45 44 44 43 42 42 43 42 42 41 38 36 35 31 26 24 24 22 20 21 20 17 21 24 19 19 17 9 12 21 20 20 25 30 33 31 28 29 29 30 32 32 31 29 28 28
69 69 68 66 63 60 58 56 54 53 51 48 45 44 44 45 46 46 47 48 50 52 52 52 51 49 48 46 43 42 42 42 43 43 44 45 47 46 46 46 47 47 47 46 44 43 43 45 45 44 42 40 35 33 33 30 26 25 26 24 22 22 20 17 20 22 20 20 15 11 21 26 21 19 23 30 34 33 32 32 30 29 31 33 33 31 29 27
71 71 70 69 66 63 60 58 56 54 53 50 47 45 45 46 46 47 47 47 48 51 53 52 51 50 50 50 47 44 43 42 41 41 42 45 46 47 47 47 48 48 48 46 44 44 46 46 45 43 40 36 31 31 33 30 27 27 28 26 25 22 18 17 17 18 20 19 13 12 24 28 24 22 27 34 37 36 34 32 31 30 32 34 34 33 30 26
71 71 71 71 69 66 63 60 57 55 54 51 48 46 46 46 47 47 48 47 47 49 51 52 52 49 48 51 49 46 44 43 42 41 42 44 45 45 46 47 48 48 47 47 46 46 46 45 43 41 38 34 32 33 35 31 28 29 29 29 28 22 17 17 16 16 20 18 13 11 21 30 27 27 34 37 39 39 33 31 32 29 29 30 31 31 28 23
66 68 70 70 70 68 65 62 59 56 54 52 49 47 47 47 47 47 48 48 46 47 49 51 52 48 46 49 50 48 46 45 44 42 42 43 43 43 44 45 46 46 46 46 46 46 44 41 41 40 37 36 35 37 37 33 30 31 30 29 28 22 20 19 16 16 19 17 16 14 19 31 28 30 38 36 36 39 34 31 31 28 26 26 27 27 25 22
60 62 64 67 68 68 66 63 60 57 54 52 50 49 48 47 47 47 47 47 45 45 47 49 52 49 45 48 50 48 48 47 46 44 43 43 42 41 41 42 43 43 43 44 44 43 41 38 38 38 36 37 37 37 37 34 31 32 31 30 29 24 21 19 12 14 18 20 20 16 21 32 29 33 38 34 34 37 34 33 31 29 27 24 23 22 21 20
53 53 55 59 63 65 66 63 60 58 55 53 52 49 48 47 47 46 46 47 45 44 45 47 49 47 46 50 52 49 49 50 48 46 44 43 42 41 41 42 43 42 41 42 43 42 41 39 37 36 36 37 37 37 36 34 32 32 32 30 28 23 19 19 12 16 21 24 25 22 24 33 35 37 38 34 34 35 34 32 31 29 28 25 22 20 18 18
45 45 44 49 55 59 62 60 58 56 55 53 52 50 49 47 47 45 44 46 44 41 43 44 45 43 44 49 52 50 50 50 48 46 45 44 42 41 42 43 42 41 41 42 42 42 41 40 39 37 37 37 37 37 35 34 33 33 32 28 26 23 22 23 19 21 25 27 27 26 26 34 40 41 38 33 32 34 33 30 29 29 29 28 27 24 21 21
37 39 36 39 46 51 55 54 53 53 53 53 51 50 49 47 46 44 42 44 41 37 39 41 40 39 39 44 47 48 50 48 45 44 45 46 45 43 43 44 43 42 42 43 44 43 41 41 41 39 39 38 38 37 36 35 34 33 31 28 27 27 25 26 27 27 26 27 27 28 29 34 39 40 37 31 29 31 31 29 28 28 28 28 28 26 25 26
30 32 31 33 38 44 47 46 46 48 50 51 50 49 48 46 44 41 40 41 37 34 36 38 38 36 35 41 44 44 46 45 42 42 44 46 46 45 45 45 44 42 43 44 44 42 41 42 42 41 41 40 38 36 35 35 34 31 30 30 31 30 27 29 30 29 27 29 28 28 31 34 36 38 35 32 32 33 31 29 28 29 29 29 28 25 25 27
25 26 26 29 32 36 39 38 40 44 47 48 48 47 46 44 42 40 40 39 34 32 35 35 37 38 37 41 43 42 44 43 41 40 41 45 45 44 45 46 45 43 43 45 43 42 42 41 41 42 41 40 37 36 35 35 34 31 32 33 33 32 31 31 30 30 30 33 32 31 34 33 33 36 36 35 35 35 32 30 30 29 29 29 28 26 26 28
24 22 22 25 28 30 31 31 35 39 42 45 45 44 44 42 41 40 38 36 33 33 33 33 35 37 37 40 41 40 42 42 41 41 42 46 45 43 43 44 44 44 44 45 44 42 41 39 41 43 41 38 37 36 35 35 34 33 33 35 33 33 35 33 31 32 31 33 39 40 37 34 35 36 37 37 35 33 33 32 31 30 28 27 27 27 27 27
21 20 21 24 25 25 25 28 32 34 37 41 42 41 40 38 38 37 34 33 33 33 32 30 32 34 35 37 38 37 39 40 40 42 45 48 47 45 45 45 47 46 46 46 45 43 41 40 42 44 41 39 38 37 36 36 36 35 35 35 35 36 39 35 33 35 34 36 41 39 34 34 37 38 39 40 38 36 36 33 32 31 30 29 28 27 27 27
18 19 21 22 22 22 24 28 30 30 31 36 39 37 36 36 35 33 31 31 31 30 28 27 27 30 32 34 36 36 37 37 38 40 44 47 48 47 47 48 50 50 49 49 47 44 43 43 42 42 40 39 39 39 39 39 38 38 37 37 38 39 42 42 39 39 41 41 36 31 29 33 39 42 43 43 41 38 36 33 32 32 31 30 30 30 30 31
17 19 18 19 20 21 25 28 28 27 28 32 36 36 35 33 30 27 28 31 30 24 23 24 24 25 29 32 34 36 36 36 37 38 41 44 46 44 44 45 47 49 49 48 48 45 43 43 41 40 40 41 41 40 42 42 41 41 41 40 40 40 43 47 46 43 41 37 31 26 28 34 40 44 45 43 40 39 38 32 28 29 29 29 30 31 32 33
15 17 17 18 18 21 27 30 28 26 26 30 35 35 33 30 28 27 25 27 29 24 19 20 22 23 25 28 30 33 35 37 37 39 41 43 45 44 44 44 45 47 46 46 48 47 44 45 44 42 42 43 41 38 38 39 39 41 41 40 41 40 41 45 48 45 36 26 24 25 29 35 41 44 44 41 39 40 39 32 25 24 26 29 30 31 32 33
10 13 14 13 16 24 31 29 26 28 28 29 32 31 31 33 33 32 29 26 27 26 20 17 19 21 22 23 26 29 32 35 37 39 41 43 44 44 44 45 46 46 45 45 47 46 44 44 44 42 40 40 39 35 33 33 35 38 38 38 41 41 40 43 47 46 34 22 22 27 32 37 40 41 40 38 37 36 36 33 29 26 24 25 27 29 31 32
8 11 10 11 21 30 30 26 26 29 29 29 30 32 35 39 38 35 34 29 24 24 24 20 19 22 21 21 23 26 28 31 35 38 40 41 42 42 42 42 44 46 46 45 44 44 43 42 41 39 35 36 37 35 33 30 30 36 39 40 42 40 37 38 44 46 36 26 26 30 33 38 41 40 37 36 35 34 34 33 32 31 28 26 26 27 28 29
6 8 10 18 30 30 23 25 29 28 28 30 34 39 41 41 38 36 34 30 25 22 25 24 21 20 20 21 22 24 27 30 33 36 39 40 40 40 40 40 42 44 44 44 40 39 41 41 41 38 32 33 37 36 35 33 30 32 36 38 40 38 35 33 39 46 41 32 32 34 34 35 37 39 38 35 34 34 34 32 31 32 31 30 30 28 27 27
12 12 19 28 32 25 19 26 29 27 31 38 42 44 44 39 38 37 32 30 27 23 24 24 21 17 15 17 20 23 27 30 33 35 37 37 36 36 38 39 41 42 42 42 38 34 37 37 36 34 31 33 36 34 34 35 35 34 31 30 37 42 40 38 39 45 48 41 36 37 38 37 37 39 40 36 35 36 36 33 30 30 31 31 31 30 28 28
19 19 25 29 27 21 19 25 30 33 41 48 47 45 42 39 39 37 31 29 29 25 23 22 21 21 17 15 16 19 25 30 32 33 34 33 30 31 35 38 41 42 41 42 39 35 38 36 31 33 32 29 30 32 32 32 35 37 29 24 34 42 40 41 42 42 47 48 42 40 43 44 43 42 41 40 39 39 37 35 32 31 32 31 31 30 29 27
20 20 20 22 24 23 22 29 36 42 48 49 45 42 41 38 38 35 31 30 28 26 23 19 19 23 23 21 18 14 21 31 33 31 30 27 22 23 30 36 40 41 40 41 40 38 40 38 33 34 32 27 29 32 30 30 33 38 35 26 33 40 35 37 41 38 39 44 46 46 49 49 48 45 42 41 40 40 39 37 34 33 33 32 30 31 30 27
20 18 15 17 23 26 29 35 41 46 48 45 39 38 37 34 34 34 32 32 30 26 24 20 20 23 26 27 22 15 20 31 32 28 27 24 19 19 25 33 39 41 42 44 43 40 40 37 34 35 33 30 30 28 25 28 33 39 40 32 33 39 36 35 40 40 37 38 40 44 47 49 49 48 45 42 41 40 39 37 35 33 33 33 33 32 31 30
17 17 17 19 23 29 36 40 45 48 45 38 34 33 32 32 34 34 30 30 31 28 26 25 23 25 29 30 26 22 27 31 29 25 24 23 20 17 19 27 35 40 43 45 44 41 39 37 35 36 34 29 28 27 25 31 38 40 40 36 35 39 40 39 40 40 39 38 36 38 40 41 42 43 43 41 40 39 37 36 35 34 34 36 36 35 33 32
15 16 19 23 27 35 41 43 45 44 37 31 29 30 31 31 33 32 26 27 31 29 28 28 26 28 31 31 28 28 32 34 31 26 22 21 21 18 15 20 29 38 43 42 40 39 40 38 35 35 32 26 28 30 27 33 41 39 35 36 38 41 43 43 41 37 35 36 36 37 36 35 36 37 39 40 39 37 35 33 32 32 34 36 38 37 34 32
18 18 20 24 29 37 41 40 39 34 29 26 26 30 32 30 32 30 24 27 32 32 31 30 29 30 33 32 30 31 34 35 30 23 19 19 20 18 15 17 25 36 43 42 38 37 38 36 35 35 32 28 31 33 30 35 44 40 34 36 39 42 44 42 39 37 33 30 32 35 34 34 34 33 34 35 36 37 36 34 33 33 33 34 36 36 36 35
19 20 23 25 28 34 35 32 27 24 24 24 25 32 32 29 31 28 25 29 34 35 34 32 31 33 34 33 32 33 36 35 30 25 21 20 18 18 16 18 26 32 38 40 38 37 37 34 35 38 37 32 33 32 29 34 43 42 37 36 38 42 43 37 33 36 37 32 29 30 32 34 35 33 31 30 30 31 32 32 33 35 35 35 35 35 37 38
19 21 23 24 27 29 26 22 18 18 22 22 26 32 31 28 29 25 25 31 33 33 33 31 32 35 36 34 32 33 35 34 32 31 27 23 22 21 20 24 29 29 31 36 38 38 37 34 35 39 39 36 32 25 22 29 39 41 37 35 35 35 35 31 27 30 36 36 33 31 32 34 35 34 31 29 29 29 29 28 29 30 32 33 33 33 34 36
21 22 24 28 28 24 20 17 17 19 21 21 24 30 30 28 26 24 27 31 32 31 30 29 32 35 36 34 31 33 35 34 32 31 30 27 25 24 27 31 31 28 28 35 38 38 35 33 35 39 40 39 34 26 22 27 37 41 38 34 33 29 28 30 30 30 32 34 33 33 33 33 33 33 30 29 29 29 28 27 27 27 28 30 30 30 30 32
21 22 26 30 26 20 18 17 16 18 19 19 21 25 25 25 25 25 28 30 32 31 29 30 34 35 37 35 32 33 35 33 29 28 30 27 24 28 35 34 32 30 29 35 39 39 36 33 34 38 39 37 35 31 27 28 33 36 35 34 35 31 29 32 35 35 34 33 33 34 34 33 33 33 31 30 29 28 27 26 26 26 27 29 30 29 27 27
23 22 25 24 20 18 18 16 15 16 14 13 16 17 16 19 22 25 28 30 32 32 31 33 35 36 38 38 35 35 36 34 30 29 30 27 26 36 39 33 31 30 28 32 38 39 39 36 34 36 36 34 33 33 32 30 29 27 29 35 37 35 34 36 37 38 38 37 36 36 36 35 34 34 33 31 29 28 26 25 25 24 25 27 29 29 26 25
23 25 24 20 18 18 17 15 14 15 12 10 12 13 11 14 18 22 26 30 32 32 33 33 32 34 38 39 38 37 37 35 31 29 28 27 32 42 40 34 32 31 29 31 35 37 39 38 37 37 36 35 36 35 34 32 28 25 29 36 37 37 38 40 40 40 40 41 40 38 35 34 35 35 33 30 28 27 26 25 24 22 21 23 25 27 25 24
23 25 21 17 18 20 17 14 13 13 11 9 11 11 11 12 17 22 26 29 31 32 34 30 27 32 39 40 39 38 36 33 30 27 26 28 35 41 38 35 35 34 33 32 32 35 39 40 40 39 36 37 37 35 33 33 32 30 32 36 37 38 40 43 42 42 43 44 43 39 36 35 36 35 32 28 26 26 27 27 25 22 20 21 22 23 23 24
21 19 16 16 19 19 16 13 12 12 11 10 10 12 13 13 17 22 26 30 32 34 35 30 26 31 38 39 38 36 33 30 27 26 26 28 35 39 36 34 34 34 33 29 27 32 37 39 40 38 36 37 37 35 35 35 36 36 36 38 39 39 40 42 42 42 44 44 41 39 38 38 37 35 31 27 24 24 26 28 27 25 23 22 22 22 23 24
Wind_Direction
260 259 259 258 257 256 255 255 253 252 250 249 249 248 247 246 245 244 243 242 242 241 241 242 242 241 241 240 239 239 239 240 241 242 242 243 245 244 244 245 245 246 247 247 247 246 243 240 238 237 237 236 235 234 233 234 234 237 238 239 238 234 232 223 218 215 199 217 229 229 235 241 246 241 214 217 224 233 244 246 248 254 253 243 244 248 250 247
261 260 259 258 257 256 255 255 254 253 251 250 249 248 247 246 245 244 243 242 241 241 240 241 241 241 241 240 239 238 238 238 240 240 239 241 243 242 241 243 244 245 246 246 246 247 245 241 238 236 235 234 234 233 232 231 232 233 235 235 231 228 225 218 218 211 199 221 233 233 233 237 241 240 227 218 228 237 239 247 254 258 257 246 244 248 247 247
263 261 259 258 257 256 255 254 254 253 252 250 249 248 247 246 246 244 243 242 241 240 240 240 240 241 240 240 239 238 237 237 238 237 237 240 241 240 240 242 243 244 245 245 244 246 245 243 240 235 234 232 232 232 231 230 230 230 230 228 225 220 215 213 216 211 205 218 232 235 236 237 235 236 228 214 228 239 239 247 252 252 252 240 236 241 243 244
265 263 261 259 257 255 255 254 253 252 252 251 250 249 247 246 246 245 243 242 241 240 239 239 239 240 240 240 239 238 238 237 236 234 235 239 240 239 240 240 241 242 243 244 243 244 244 244 241 237 235 232 231 231 230 229 228 228 227 223 221 213 206 210 216 218 215 216 228 235 237 240 233 233 230 215 222 235 237 240 241 243 247 241 235 238 242 241
266 265 263 261 259 256 254 253 253 252 251 250 250 249 248 246 245 244 243 242 241 240 239 239 238 239 239 239 239 238 238 237 235 233 235 238 239 239 239 239 240 240 241 243 242 243 243 243 240 238 236 233 232 231 229 230 226 225 224 220 220 217 215 218 217 222 223 221 228 234 237 240 234 230 230 223 223 233 238 235 231 236 243 242 239 241 243 241
266 265 264 263 261 259 256 253 252 252 251 250 249 249 248 247 246 244 243 242 241 240 239 239 238 238 238 238 238 238 237 237 236 234 235 238 239 238 238 238 238 238 240 240 240 240 241 241 240 238 237 234 233 231 229 229 225 221 220 219 222 222 226 230 227 231 234 230 230 237 243 244 236 227 225 231 233 235 240 237 228 227 236 240 240 241 243 244
268 266 264 263 262 260 258 256 253 251 250 250 248 248 247 247 246 245 243 242 241 240 240 239 238 237 237 237 237 237 237 237 237 235 234 236 238 237 237 237 236 237 237 237 236 237 238 238 238 236 235 234 232 230 228 228 227 220 215 218 223 224 227 233 237 241 243 240 237 244 250 248 242 235 231 238 240 238 241 241 231 224 230 237 238 240 243 246
269 267 265 263 261 260 259 258 255 252 250 249 248 247 246 246 246 245 244 242 241 240 239 239 238 237 237 236 236 236 236 238 238 236 233 234 236 236 236 235 234 234 235 234 234 233 235 236 235 233 233 233 230 228 228 227 227 221 213 217 224 226 226 229 238 242 243 243 243 246 248 247 242 241 240 238 237 237 241 243 237 227 228 234 238 240 243 245
270 269 267 265 262 260 259 258 257 254 251 249 248 247 245 244 244 244 244 243 241 240 239 238 238 237 237 236 235 235 235 237 238 236 233 232 233 234 234 234 232 232 232 232 231 231 233 233 233 231 229 230 228 226 228 226 226 219 210 215 224 228 228 227 233 240 239 236 237 239 243 246 236 236 240 233 229 232 234 240 241 232 228 232 238 241 242 243
270 269 268 267 265 262 259 257 256 255 253 250 248 246 245 244 243 243 243 243 242 240 239 238 237 236 236 235 234 233 233 234 235 235 233 231 231 233 234 234 232 231 230 230 231 230 231 230 230 229 226 227 228 228 229 227 226 219 208 211 221 227 229 228 231 240 243 237 235 239 242 241 219 219 232 232 230 231 229 235 241 237 230 231 234 237 239 239
270 269 268 267 266 264 261 258 256 255 254 252 249 246 245 244 242 242 242 242 241 240 239 238 237 236 235 235 234 232 230 233 235 234 233 232 230 231 234 234 232 230 229 229 230 229 228 226 226 227 226 228 229 230 232 230 229 222 212 212 218 224 229 230 232 239 245 242 238 243 242 232 212 210 224 232 233 234 231 230 238 241 236 232 232 233 236 237
269 268 267 266 266 265 263 260 256 254 253 252 251 247 244 243 242 241 240 240 240 240 239 238 237 235 235 234 232 231 229 231 234 235 234 233 231 230 233 234 232 230 228 228 228 227 226 225 226 228 226 227 228 229 233 235 235 231 224 221 221 225 230 233 234 238 245 247 243 247 242 234 224 209 218 234 236 237 237 232 234 240 238 236 236 233 233 237
267 266 265 265 265 264 262 261 258 255 252 251 251 249 245 242 241 240 239 239 239 239 239 238 237 235 234 233 230 229 230 230 232 234 234 232 230 231 232 233 232 229 227 227 226 226 225 225 226 227 227 227 227 226 227 231 232 233 234 232 228 228 232 234 236 240 244 247 245 250 246 241 233 206 212 235 241 240 240 235 231 234 235 234 233 230 232 240
265 265 264 263 262 262 261 260 259 256 253 251 250 249 247 243 241 240 239 238 237 238 238 237 236 235 234 231 229 229 230 229 230 233 233 228 225 228 230 231 232 230 228 226 226 226 225 225 226 226 227 227 229 227 226 229 228 228 233 233 229 228 230 232 238 241 243 243 243 249 246 243 235 205 210 231 241 243 242 238 234 233 235 235 234 233 237 243
264 262 261 261 260 260 259 259 258 257 254 252 249 248 247 245 241 239 238 237 236 236 236 236 235 234 233 229 227 228 229 229 229 231 233 228 221 224 227 228 230 230 227 225 224 225 225 225 226 226 227 227 229 230 231 234 231 228 232 233 230 228 227 229 235 240 243 242 240 243 241 240 229 200 207 227 238 244 243 241 240 234 234 237 239 240 240 241
263 261 259 258 258 257 257 257 256 255 254 253 250 248 247 246 243 240 237 236 235 234 234 234 233 232 232 229 227 228 229 229 229 229 230 227 221 221 224 224 225 226 225 223 222 223 224 225 226 226 227 226 228 231 233 236 232 228 232 234 232 229 227 228 233 235 239 242 240 239 238 240 229 193 205 225 234 243 246 246 247 240 234 234 238 241 240 239
261 260 258 256 255 255 255 255 255 254 253 252 251 248 247 246 244 241 238 236 235 233 233 233 231 230 230 229 228 229 230 230 229 229 228 227 223 221 223 223 224 224 222 221 220 221 223 224 226 225 225 226 227 229 231 234 232 230 233 235 234 231 227 229 235 233 229 239 243 242 238 237 230 191 200 218 229 243 251 251 252 247 238 233 234 238 238 238
260 259 257 255 253 252 252 252 252 252 251 251 251 248 246 245 245 243 239 236 234 233 232 231 230 229 230 228 227 226 226 226 226 226 225 225 223 221 221 222 223 223 221 221 220 220 222 224 226 225 226 227 227 228 231 234 233 231 233 234 233 233 229 229 239 238 229 231 239 246 224 199 197 190 197 214 230 244 252 252 252 247 241 239 238 238 238 240
259 258 256 254 252 251 249 249 249 250 250 250 250 249 246 244 245 244 240 235 233 232 231 230 228 228 229 227 224 223 224 223 222 222 221 222 222 221 220 220 221 222 221 221 221 220 222 223 226 226 226 227 227 229 233 235 232 230 231 228 225 229 226 224 238 243 237 233 234 227 186 180 192 205 207 219 234 243 248 247 247 246 245 246 244 242 240 241
257 257 256 254 252 250 248 247 247 248 249 248 248 248 246 244 243 243 240 236 232 231 230 229 226 226 228 225 222 221 221 221 221 220 219 220 221 220 219 219 219 221 221 222 221 220 221 224 227 229 229 228 227 229 232 232 229 228 228 224 218 222 222 217 231 242 241 236 231 189 176 184 198 212 217 223 230 237 242 245 245 245 246 246 246 243 241 242
255 254 254 253 251 249 248 246 245 245 247 247 247 247 246 244 243 242 240 237 234 231 230 229 226 226 228 227 224 222 221 221 220 218 217 219 220 220 219 218 219 220 221 221 219 220 222 225 228 229 228 227 226 227 230 228 224 226 229 225 217 214 215 212 218 236 246 245 242 198 184 193 197 200 213 218 222 231 241 246 244 242 244 246 247 247 245 246
252 251 251 250 249 248 246 245 244 243 244 245 245 245 244 243 241 240 238 237 235 232 229 228 227 225 227 228 226 224 223 222 221 219 217 218 219 219 218 219 219 219 220 220 219 220 223 224 225 226 224 222 220 222 227 223 220 223 227 229 224 210 196 196 198 222 247 249 253 238 198 199 202 204 215 219 222 232 242 248 246 244 246 247 248 249 248 247
248 248 248 247 247 246 244 243 242 241 241 242 243 242 242 242 240 238 237 236 234 232 230 228 227 224 226 228 227 226 224 223 223 221 219 219 219 218 217 218 219 218 218 219 221 221 222 222 222 223 221 219 217 220 224 221 219 222 224 228 229 214 187 182 192 217 243 249 256 260 203 196 209 217 221 223 227 236 243 248 249 245 245 246 248 251 251 246
244 243 244 244 244 244 242 240 240 239 239 239 239 239 240 241 239 237 237 236 233 232 230 228 227 224 224 227 227 225 224 225 224 223 222 221 220 218 217 218 218 218 217 218 221 220 222 221 221 222 220 219 218 219 223 220 217 221 224 226 227 221 190 175 199 226 236 242 245 242 198 195 216 227 227 227 228 236 241 244 246 245 245 246 249 255 257 249
239 238 239 240 240 241 240 238 236 236 236 235 236 237 237 238 238 236 235 235 231 229 229 228 227 224 222 225 226 224 223 224 224 224 223 222 222 220 219 219 218 218 217 217 219 219 220 220 221 222 220 221 221 220 222 219 216 219 222 225 225 219 183 165 202 228 227 230 231 230 210 205 218 228 231 230 228 235 240 243 246 246 246 245 246 256 259 247
236 231 234 237 236 237 238 236 234 233 232 232 232 233 234 234 236 235 234 234 231 228 228 227 226 224 222 225 226 225 223 223 223 224 223 222 222 220 220 220 218 218 217 217 219 219 220 220 220 220 220 220 221 221 221 217 216 218 220 221 216 206 179 168 188 210 224 231 232 238 227 213 217 226 233 231 227 234 238 242 247 247 247 246 248 254 252 242
231 225 228 233 232 234 236 233 230 229 228 228 229 230 231 231 233 233 233 234 231 228 228 226 224 223 222 224 226 227 226 225 224 223 223 223 222 220 220 221 220 218 217 217 218 218 220 220 220 220 219 220 220 221 222 218 216 216 218 212 202 199 186 177 186 199 221 233 234 242 231 216 220 227 235 234 229 236 240 240 241 243 244 244 247 247 242 240
222 217 222 228 227 230 233 230 226 224 224 224 225 227 228 228 229 229 229 231 229 226 225 222 219 217 216 220 222 224 226 226 225 225 224 224 222 220 219 220 220 219 219 219 218 218 219 221 222 221 219 220 220 220 221 221 217 213 215 206 197 200 188 181 190 196 213 225 225 230 220 215 226 231 235 238 236 239 241 240 241 243 244 244 246 245 241 242
206 208 221 224 222 227 230 225 220 219 219 220 221 223 225 225 224 224 224 225 224 221 220 218 216 213 212 216 218 218 221 222 220 220 222 223 222 221 220 221 220 217 218 221 220 219 220 221 225 225 222 221 221 220 219 222 220 211 212 208 201 202 192 185 192 194 208 222 221 222 218 219 230 232 233 237 238 240 240 241 243 246 248 246 246 248 247 247
199 204 214 214 215 224 225 217 212 212 213 215 216 218 221 221 220 220 219 219 218 217 216 216 215 212 211 214 216 216 218 218 215 214 217 220 220 220 219 219 219 217 216 219 219 219 220 219 224 227 224 221 221 221 218 221 221 211 211 212 204 201 194 189 193 195 206 219 218 221 226 226 230 234 237 241 244 248 249 247 246 248 251 250 248 249 248 249
204 200 200 204 212 219 215 207 203 203 207 210 210 212 214 215 215 216 214 214 217 216 213 213 213 212 210 213 216 216 217 217 215 215 217 217 217 215 214 214 217 217 216 217 217 218 218 216 220 225 225 221 218 219 218 218 220 214 211 213 205 197 193 194 198 199 207 218 216 219 226 224 227 236 243 247 249 250 249 245 244 246 249 249 246 243 246 251
201 193 196 205 211 208 200 195 191 190 196 204 206 204 207 209 209 208 205 204 210 213 211 210 211 212 210 211 214 216 218 219 217 217 219 220 218 214 213 215 216 217 217 218 217 215 216 215 217 222 224 223 218 217 217 214 217 216 210 210 208 200 197 203 205 202 208 218 219 222 226 221 223 232 241 248 251 250 245 238 235 239 241 241 240 241 247 252
190 191 201 208 206 198 189 180 175 179 187 196 198 197 200 200 193 192 197 199 201 205 208 208 207 211 212 211 212 212 215 218 219 219 220 222 221 216 213 215 216 218 218 217 215 212 212 212 212 214 218 222 220 218 219 216 215 217 211 207 209 205 201 206 208 204 206 215 220 224 228 223 220 225 234 243 249 250 247 240 233 236 239 241 242 242 246 248
188 197 207 210 204 189 173 162 163 174 182 188 191 191 189 179 168 173 183 192 197 194 195 205 207 208 210 211 213 213 214 214 215 218 219 219 220 216 212 213 214 216 217 215 214 211 209 211 212 213 214 219 220 218 221 220 214 216 215 209 210 209 205 205 205 202 202 212 227 225 224 224 222 223 230 238 246 250 249 243 235 236 238 239 242 242 243 245
202 206 209 209 191 168 155 152 163 174 176 181 184 178 168 157 157 164 163 171 192 190 180 191 202 202 202 203 205 207 211 212 210 212 216 218 220 217 212 212 212 213 213 213 214 212 209 212 216 215 212 214 216 212 214 216 213 216 213 208 212 212 207 205 202 200 199 208 227 226 223 225 224 224 228 234 241 248 249 244 238 236 234 234 239 241 243 244
223 209 206 190 163 150 147 155 170 173 171 171 167 157 152 153 157 161 160 165 180 184 179 179 184 188 190 192 193 194 199 204 205 208 212 215 219 218 213 211 212 212 212 211 213 212 207 207 211 212 210 212 213 208 205 204 208 217 215 211 215 212 204 205 204 201 200 205 218 223 224 225 225 227 229 230 235 244 248 246 242 240 239 241 243 244 244 245
180 182 176 159 146 140 151 167 169 167 162 156 151 148 150 156 160 159 161 166 169 177 182 179 175 178 183 184 185 188 190 194 199 206 211 212 214 215 212 210 212 212 211 210 210 210 205 202 205 207 204 205 209 206 201 195 195 210 220 219 213 203 198 205 206 203 203 206 215 220 221 222 225 229 233 233 236 243 248 250 247 245 247 249 249 248 247 246
106 132 147 144 138 140 162 170 162 154 149 146 147 149 151 155 158 156 157 162 162 169 178 175 167 164 176 186 182 184 188 192 198 203 209 212 212 213 211 208 208 209 209 208 203 201 202 201 203 206 204 204 211 210 202 202 203 208 219 218 205 198 200 205 206 205 205 207 215 219 219 219 222 227 232 235 239 244 249 252 251 249 251 253 252 251 249 246
91 113 134 139 140 148 163 162 153 145 143 145 146 149 150 152 155 154 153 155 156 164 172 176 175 166 167 173 172 181 187 190 197 200 205 210 209 210 210 207 205 204 203 204 199 194 197 197 195 203 207 207 215 215 207 210 214 208 207 209 201 201 207 211 211 210 208 210 217 222 223 223 225 228 230 232 234 238 244 248 249 250 253 255 253 252 251 247
98 111 128 140 144 148 155 153 145 141 142 143 143 145 147 150 154 153 150 150 155 164 169 179 187 176 167 161 159 173 186 187 193 195 199 204 204 207 210 206 204 202 197 197 196 193 196 196 189 194 201 202 212 221 218 217 213 201 196 200 200 201 208 215 216 214 211 213 218 223 227 229 231 232 233 234 235 236 240 245 247 249 254 257 255 252 251 248
93 102 120 142 145 146 149 145 139 138 140 138 138 144 147 148 152 150 149 153 158 164 168 173 178 172 163 158 156 157 173 184 190 189 190 195 198 205 207 204 202 199 194 193 192 191 195 197 195 198 199 198 208 219 217 214 210 199 193 192 196 201 207 213 216 218 219 218 219 223 228 232 234 236 237 239 240 240 243 246 248 249 252 255 255 253 251 249
82 87 104 130 141 142 142 139 137 139 138 132 133 142 145 147 151 150 150 159 162 165 173 176 171 165 160 157 156 156 165 176 183 183 184 190 197 200 204 206 201 195 194 196 195 194 195 197 200 205 203 197 204 208 199 201 206 201 194 189 191 200 208 214 217 218 220 221 222 224 228 232 234 236 237 238 238 240 244 247 249 250 251 251 252 252 250 248
91 90 102 121 135 138 138 138 139 140 137 130 131 141 146 149 154 153 153 164 167 166 173 176 167 162 161 159 159 162 167 172 175 176 180 188 195 193 195 206 200 191 191 195 195 194 197 198 195 199 200 194 198 201 194 195 200 199 198 194 193 200 208 215 218 217 216 221 224 225 228 233 234 234 235 236 237 238 241 245 246 247 248 249 250 251 249 246
99 97 106 120 131 137 137 136 137 138 135 128 132 147 150 149 155 159 159 169 173 169 168 170 165 163 164 161 161 165 169 171 167 166 180 193 194 187 188 196 192 188 190 192 193 193 197 199 193 190 192 186 188 194 193 193 194 194 200 202 200 203 208 213 217 215 214 220 226 228 230 232 235 237 237 238 240 241 242 244 245 246 247 248 249 250 248 246
101 105 113 120 130 136 132 128 129 135 133 127 139 154 154 152 157 162 167 175 177 172 167 167 167 167 165 162 162 165 170 170 164 166 184 197 191 181 184 181 176 182 189 191 194 197 198 201 197 194 195 192 191 194 195 195 194 195 202 207 206 208 209 210 214 215 214 216 221 226 228 229 231 234 236 238 240 241 242 243 244 245 247 248 249 249 248 246
109 117 122 128 136 134 126 119 121 131 133 132 145 157 159 159 160 163 172 177 176 173 170 169 169 168 167 165 164 166 170 170 168 170 178 189 189 177 171 167 163 173 187 190 195 200 201 202 200 199 202 203 202 199 194 195 197 201 207 207 205 209 209 206 212 218 217 218 221 223 223 225 229 231 234 238 239 240 240 240 240 241 243 244 246 248 247 245
111 120 128 135 137 131 123 121 123 133 138 136 146 159 165 166 166 169 175 176 174 172 171 172 172 169 169 169 165 166 172 173 172 171 169 178 186 172 162 163 164 172 189 194 196 201 202 201 201 202 205 208 210 210 205 200 200 205 211 206 201 206 206 202 210 221 221 222 228 230 227 227 230 233 236 238 239 240 241 240 238 239 239 239 241 243 244 243
108 118 130 134 130 124 122 121 122 135 140 137 144 155 164 171 174 175 176 175 173 173 172 172 172 169 170 172 168 169 174 174 174 172 169 175 182 167 160 164 168 177 191 196 198 201 203 203 202 203 206 210 211 211 210 205 200 203 210 207 201 205 206 203 209 219 221 222 228 234 236 235 234 237 239 240 240 240 240 240 240 239 238 239 239 240 240 240
104 120 132 129 117 113 115 109 114 129 131 133 144 148 155 171 178 179 177 175 174 175 172 170 170 170 172 173 172 173 176 175 177 176 173 175 172 163 162 166 173 183 194 200 201 201 201 204 204 202 203 205 204 202 201 199 195 195 201 202 201 203 206 207 210 214 217 217 221 228 236 239 239 240 241 242 244 244 244 244 242 239 239 238 237 237 236 234
109 125 131 124 115 118 120 114 121 133 130 132 147 149 151 168 180 181 179 177 177 177 172 169 172 176 176 175 175 176 176 176 178 178 175 171 164 161 164 169 177 185 195 205 208 203 200 204 203 199 199 199 199 200 199 193 190 191 195 199 202 204 206 209 211 214 215 216 219 224 229 235 240 240 240 243 248 248 246 243 239 236 237 236 233 232 231 229
116 124 124 123 128 134 135 131 136 150 161 165 170 179 181 178 182 184 183 182 182 178 172 169 175 182 181 177 176 177 177 177 180 179 174 170 166 166 169 172 177 185 193 205 211 204 200 204 201 196 197 199 199 200 199 191 188 194 200 204 207 207 208 212 214 215 215 216 220 226 228 231 236 237 237 243 249 249 244 241 236 233 233 232 228 226 226 226
114 118 118 127 136 140 140 136 135 147 166 179 187 199 206 202 193 188 188 188 185 180 177 175 179 182 181 179 180 180 179 178 181 181 178 173 170 172 177 177 177 183 189 199 209 204 200 204 203 198 198 201 201 201 199 193 190 195 202 208 211 211 212 215 217 216 213 214 220 227 230 231 234 235 236 240 246 247 242 240 239 235 231 229 226 223 224 226